Time,TemperatureF,DewpointF,PressureIn,WindDirection,WindDirectionDegrees,WindSpeedMPH,WindSpeedGustMPH,Humidity,HourlyPrecipIn,Conditions,Clouds,dailyrainin,SoftwareType,DateUTC
2013-07-26 00:01:00,64.6,40.4,31.83,NE,42,0.0,6.0,41,0.03,,---,0.03,VWS V14.01,2013-07-26 04:01:00,
2013-07-26 00:06:00,64.6,40.4,31.83,NNE,25,6.0,7.0,41,0.02,,---,0.00,VWS V14.01,2013-07-26 04:06:00,
2013-07-26 00:11:00,64.5,40.3,31.83,NE,40,2.0,7.0,41,0.02,,---,0.00,VWS V14.01,2013-07-26 04:11:00,
2013-07-26 00:16:00,64.5,40.3,31.83,NNE,30,0.0,7.0,41,0.02,,---,0.00,VWS V14.01,2013-07-26 04:16:00,
2013-07-26 00:21:00,64.5,40.3,31.83,NNE,31,0.0,7.0,41,0.02,,---,0.00,VWS V14.01,2013-07-26 04:21:00,
2013-07-26 00:26:00,64.5,40.9,31.83,NNE,30,0.0,7.0,42,0.02,,---,0.00,VWS V14.01,2013-07-26 04:26:00,
2013-07-26 00:31:00,64.5,40.9,31.83,NNE,26,0.0,7.0,42,0.02,,---,0.00,VWS V14.01,2013-07-26 04:31:00,
2013-07-26 00:36:00,64.5,40.9,31.83,NNE,13,0.0,6.0,42,0.00,,---,0.00,VWS V14.01,2013-07-26 04:36:00,
2013-07-26 00:41:00,64.5,40.9,31.83,NNE,31,3.0,6.0,42,0.00,,---,0.00,VWS V14.01,2013-07-26 04:41:00,
2013-07-26 00:46:00,64.5,40.9,31.83,NE,50,0.0,9.0,42,0.00,,---,0.00,VWS V14.01,2013-07-26 04:46:00,
2013-07-26 00:51:00,64.5,40.9,31.83,NNE,27,0.0,9.0,42,0.00,,---,0.00,VWS V14.01,2013-07-26 04:51:00,
2013-07-26 00:56:00,64.5,40.9,31.83,North,355,0.0,9.0,42,0.00,,---,0.00,VWS V14.01,2013-07-26 04:56:00,
2013-07-26 01:01:00,64.5,40.9,31.83,NNE,29,2.0,9.0,42,0.00,,---,0.00,VWS V14.01,2013-07-26 05:01:00,
2013-07-26 01:06:00,64.5,40.9,31.83,North,355,3.0,6.0,42,0.00,,---,0.00,VWS V14.01,2013-07-26 05:06:00,
2013-07-26 01:11:00,64.5,40.9,31.83,North,11,0.0,6.0,42,0.00,,---,0.00,VWS V14.01,2013-07-26 05:11:00,
2013-07-26 01:16:00,64.5,40.9,31.83,NE,38,0.0,6.0,42,0.00,,---,0.00,VWS V14.01,2013-07-26 05:16:00,
2013-07-26 01:21:00,64.5,40.9,31.83,NE,56,0.0,9.0,42,0.00,,---,0.00,VWS V14.01,2013-07-26 05:21:00,
2013-07-26 01:26:00,64.6,41.0,31.83,NNE,24,0.0,9.0,42,0.00,,---,0.00,VWS V14.01,2013-07-26 05:26:00,
2013-07-26 01:31:00,64.7,41.1,31.83,NNE,25,0.0,9.0,42,0.00,,---,0.00,VWS V14.01,2013-07-26 05:31:00,
2013-07-26 01:36:00,64.8,41.2,31.83,NE,34,3.0,10.0,42,0.00,,---,0.00,VWS V14.01,2013-07-26 05:36:00,
2013-07-26 01:41:00,64.9,41.3,31.83,NE,36,1.0,10.0,42,0.00,,---,0.00,VWS V14.01,2013-07-26 05:41:00,
2013-07-26 01:46:00,65.0,42.0,31.83,NE,40,0.0,10.0,43,0.00,,---,0.00,VWS V14.01,2013-07-26 05:46:00,
2013-07-26 01:51:00,65.1,42.1,31.83,NNE,21,0.0,10.0,43,0.00,,---,0.00,VWS V14.01,2013-07-26 05:51:00,
2013-07-26 01:56:00,65.2,42.2,31.83,NNE,22,0.0,10.0,43,0.00,,---,0.00,VWS V14.01,2013-07-26 05:56:00,
2013-07-26 02:01:00,65.2,42.2,31.83,NNE,21,0.0,10.0,43,0.00,,---,0.00,VWS V14.01,2013-07-26 06:01:00,
2013-07-26 02:06:00,65.2,42.2,31.83,NNE,21,0.0,1.0,43,0.00,,---,0.00,VWS V14.01,2013-07-26 06:06:00,
2013-07-26 02:11:00,65.2,42.2,31.83,NNE,22,0.0,1.0,43,0.00,,---,0.00,VWS V14.01,2013-07-26 06:11:00,
2013-07-26 02:16:00,65.3,42.2,31.83,NNE,21,0.0,4.0,43,0.00,,---,0.00,VWS V14.01,2013-07-26 06:16:00,
2013-07-26 02:21:00,65.3,42.2,31.83,NNE,24,0.0,6.0,43,0.00,,---,0.00,VWS V14.01,2013-07-26 06:21:00,
2013-07-26 02:26:00,65.3,42.2,31.83,NNE,24,0.0,6.0,43,0.00,,---,0.00,VWS V14.01,2013-07-26 06:26:00,
2013-07-26 02:31:00,65.3,42.2,31.83,NNE,24,0.0,6.0,43,0.00,,---,0.00,VWS V14.01,2013-07-26 06:31:00,
2013-07-26 02:36:00,65.3,42.2,31.83,NNE,24,0.0,1.0,43,0.00,,---,0.00,VWS V14.01,2013-07-26 06:36:00,
2013-07-26 02:41:00,65.4,42.3,31.83,NNE,26,0.0,5.0,43,0.00,,---,0.00,VWS V14.01,2013-07-26 06:41:00,
2013-07-26 02:46:00,65.4,42.3,31.83,NNE,26,0.0,5.0,43,0.00,,---,0.00,VWS V14.01,2013-07-26 06:46:00,
2013-07-26 02:51:00,65.4,42.3,31.83,NNE,22,0.0,5.0,43,0.00,,---,0.00,VWS V14.01,2013-07-26 06:51:00,
2013-07-26 02:56:00,65.4,42.3,31.83,NNE,22,0.0,5.0,43,0.00,,---,0.00,VWS V14.01,2013-07-26 06:56:00,
2013-07-26 03:01:00,65.4,42.3,31.83,NNE,22,0.0,5.0,43,0.00,,---,0.00,VWS V14.01,2013-07-26 07:01:00,
2013-07-26 03:06:00,65.4,42.3,31.83,NNE,24,0.0,2.0,43,0.00,,---,0.00,VWS V14.01,2013-07-26 07:06:00,
2013-07-26 03:11:00,65.4,42.3,31.83,NNE,24,0.0,3.0,43,0.00,,---,0.00,VWS V14.01,2013-07-26 07:11:00,
2013-07-26 03:16:00,65.4,42.3,31.83,NNE,24,0.0,3.0,43,0.00,,---,0.00,VWS V14.01,2013-07-26 07:16:00,
2013-07-26 03:21:00,65.5,42.4,31.83,NNE,23,0.0,7.0,43,0.00,,---,0.00,VWS V14.01,2013-07-26 07:21:00,
2013-07-26 03:26:00,65.5,42.4,31.83,NNE,21,0.0,7.0,43,0.00,,---,0.00,VWS V14.01,2013-07-26 07:26:00,
2013-07-26 03:31:00,65.6,42.5,31.83,NNE,22,0.0,7.0,43,0.00,,---,0.00,VWS V14.01,2013-07-26 07:31:00,
2013-07-26 03:36:00,65.7,42.6,31.83,NNE,21,0.0,3.0,43,0.00,,---,0.00,VWS V14.01,2013-07-26 07:36:00,
2013-07-26 03:41:00,65.7,42.6,31.83,NNE,22,0.0,3.0,43,0.00,,---,0.00,VWS V14.01,2013-07-26 07:41:00,
2013-07-26 03:46:00,65.7,43.2,31.83,NNE,22,0.0,5.0,44,0.00,,---,0.00,VWS V14.01,2013-07-26 07:46:00,
2013-07-26 03:51:00,65.8,43.3,31.83,NNE,22,0.0,5.0,44,0.00,,---,0.00,VWS V14.01,2013-07-26 07:51:00,
2013-07-26 03:55:00,65.8,43.3,31.83,NNE,22,0.0,5.0,44,0.00,,---,0.00,VWS V14.01,2013-07-26 07:55:00,
2013-07-26 04:00:00,65.9,43.4,31.83,NNE,23,1.0,5.0,44,0.00,,---,0.00,VWS V14.01,2013-07-26 08:00:00,
2013-07-26 04:05:00,65.9,43.4,31.83,NE,44,0.0,3.0,44,0.00,,---,0.00,VWS V14.01,2013-07-26 08:05:00,
2013-07-26 04:10:00,66.0,44.1,31.83,NE,44,0.0,3.0,45,0.00,,---,0.00,VWS V14.01,2013-07-26 08:10:00,
2013-07-26 04:15:00,66.0,44.1,31.83,NE,44,0.0,3.0,45,0.00,,---,0.00,VWS V14.01,2013-07-26 08:15:00,
2013-07-26 04:20:00,66.1,44.2,31.83,NE,40,0.0,4.0,45,0.00,,---,0.00,VWS V14.01,2013-07-26 08:20:00,
2013-07-26 04:25:00,66.2,44.8,31.83,NE,34,0.0,7.0,46,0.00,,---,0.00,VWS V14.01,2013-07-26 08:25:00,
2013-07-26 04:30:00,66.2,44.8,31.83,NNE,33,0.0,7.0,46,0.00,,---,0.00,VWS V14.01,2013-07-26 08:30:00,
2013-07-26 04:36:00,66.3,45.5,31.83,NNE,33,0.0,0.0,47,0.00,,---,0.00,VWS V14.01,2013-07-26 08:36:00,
2013-07-26 04:41:00,66.4,45.6,31.83,NE,34,0.0,1.0,47,0.00,,---,0.00,VWS V14.01,2013-07-26 08:41:00,
2013-07-26 04:46:00,66.4,45.6,31.83,NNE,33,0.0,1.0,47,0.00,,---,0.00,VWS V14.01,2013-07-26 08:46:00,
2013-07-26 04:51:00,66.4,45.6,31.83,NE,34,0.0,3.0,47,0.00,,---,0.00,VWS V14.01,2013-07-26 08:51:00,
2013-07-26 04:56:00,66.5,45.7,31.83,NNE,30,0.0,4.0,47,0.00,,---,0.00,VWS V14.01,2013-07-26 08:56:00,
2013-07-26 05:01:00,66.6,46.3,31.83,NNE,28,0.0,6.0,48,0.00,,---,0.00,VWS V14.01,2013-07-26 09:01:00,
2013-07-26 05:06:00,66.7,46.4,31.83,NNE,32,2.0,6.0,48,0.00,,---,0.00,VWS V14.01,2013-07-26 09:06:00,
2013-07-26 05:11:00,66.8,47.0,31.83,NNE,33,0.0,10.0,49,0.00,,---,0.00,VWS V14.01,2013-07-26 09:11:00,
2013-07-26 05:15:00,66.9,47.7,31.83,NNE,28,1.0,10.0,50,0.00,,---,0.00,VWS V14.01,2013-07-26 09:15:00,
2013-07-26 05:20:00,67.0,47.8,31.83,NNE,12,3.0,10.0,50,0.00,,---,0.00,VWS V14.01,2013-07-26 09:20:00,
2013-07-26 05:25:00,67.0,47.8,31.83,NE,38,0.0,10.0,50,0.00,,---,0.00,VWS V14.01,2013-07-26 09:25:00,
2013-07-26 05:30:00,67.0,47.8,31.83,NE,38,0.0,10.0,50,0.00,,---,0.00,VWS V14.01,2013-07-26 09:30:00,
2013-07-26 05:35:00,67.0,48.3,31.83,NE,38,0.0,3.0,51,0.00,,---,0.00,VWS V14.01,2013-07-26 09:35:00,
2013-07-26 05:40:00,67.0,48.3,31.83,NNE,24,0.0,4.0,51,0.00,,---,0.00,VWS V14.01,2013-07-26 09:40:00,
2013-07-26 05:45:00,67.1,48.4,31.83,NNE,30,1.0,4.0,51,0.00,,---,0.00,VWS V14.01,2013-07-26 09:45:00,
2013-07-26 05:50:00,67.1,48.4,31.83,NNE,28,3.0,6.0,51,0.00,,---,0.00,VWS V14.01,2013-07-26 09:50:00,
2013-07-26 05:55:00,67.2,49.0,31.83,NNE,28,0.0,6.0,52,0.00,,---,0.00,VWS V14.01,2013-07-26 09:55:00,
2013-07-26 06:00:00,67.2,49.0,31.83,NNE,19,0.0,6.0,52,0.00,,---,0.00,VWS V14.01,2013-07-26 10:00:00,
2013-07-26 06:05:00,67.3,49.6,31.83,SSW,195,0.0,4.0,53,0.00,,---,0.00,VWS V14.01,2013-07-26 10:05:00,
2013-07-26 06:10:00,67.3,49.6,31.83,North,5,4.0,4.0,53,0.00,,---,0.00,VWS V14.01,2013-07-26 10:10:00,
2013-07-26 06:15:00,67.4,49.7,31.83,NNE,29,0.0,6.0,53,0.00,,---,0.00,VWS V14.01,2013-07-26 10:15:00,
2013-07-26 06:20:00,67.4,49.7,31.83,NE,36,4.0,6.0,53,0.00,,---,0.00,VWS V14.01,2013-07-26 10:20:00,
2013-07-26 06:25:00,67.4,49.7,31.83,NNE,28,0.0,6.0,53,0.00,,---,0.00,VWS V14.01,2013-07-26 10:25:00,
2013-07-26 06:30:00,67.4,49.2,31.83,NNE,28,1.0,6.0,52,0.00,,---,0.00,VWS V14.01,2013-07-26 10:30:00,
2013-07-26 06:35:00,67.4,49.2,31.83,NNE,28,0.0,3.0,52,0.00,,---,0.00,VWS V14.01,2013-07-26 10:35:00,
2013-07-26 06:40:00,67.4,49.2,31.83,NNE,28,0.0,3.0,52,0.00,,---,0.00,VWS V14.01,2013-07-26 10:40:00,
2013-07-26 06:45:00,67.4,49.2,31.83,NNE,28,0.0,3.0,52,0.00,,---,0.00,VWS V14.01,2013-07-26 10:45:00,
2013-07-26 06:50:00,67.4,49.2,31.83,NNE,28,0.0,3.0,52,0.00,,---,0.00,VWS V14.01,2013-07-26 10:50:00,
2013-07-26 06:55:00,67.4,49.2,31.83,NNE,28,1.0,4.0,52,0.00,,---,0.00,VWS V14.01,2013-07-26 10:55:00,
2013-07-26 07:00:00,67.5,48.8,31.83,NNE,29,3.0,4.0,51,0.00,,---,0.00,VWS V14.01,2013-07-26 11:00:00,
2013-07-26 07:05:00,67.5,48.8,31.83,NNE,29,0.0,2.0,51,0.00,,---,0.00,VWS V14.01,2013-07-26 11:05:00,
2013-07-26 07:10:00,67.5,49.3,31.83,NNE,29,0.0,3.0,52,0.00,,---,0.00,VWS V14.01,2013-07-26 11:10:00,
2013-07-26 07:15:00,67.6,49.4,31.83,NNE,29,0.0,3.0,52,0.00,,---,0.00,VWS V14.01,2013-07-26 11:15:00,
2013-07-26 07:20:00,67.6,48.8,31.83,NE,55,0.0,3.0,51,0.00,,---,0.00,VWS V14.01,2013-07-26 11:20:00,
2013-07-26 07:25:00,67.7,48.9,31.83,NNE,32,0.0,3.0,51,0.00,,---,0.00,VWS V14.01,2013-07-26 11:25:00,
2013-07-26 07:30:00,67.7,48.9,31.83,NNE,32,0.0,3.0,51,0.00,,---,0.00,VWS V14.01,2013-07-26 11:30:00,
2013-07-26 07:35:00,67.8,49.0,31.83,NNE,32,0.0,1.0,51,0.00,,---,0.00,VWS V14.01,2013-07-26 11:35:00,
2013-07-26 07:40:00,67.8,49.0,31.83,NNE,32,0.0,2.0,51,0.00,,---,0.00,VWS V14.01,2013-07-26 11:40:00,
2013-07-26 07:45:00,67.8,49.0,31.83,NNE,32,0.0,2.0,51,0.00,,---,0.00,VWS V14.01,2013-07-26 11:45:00,
2013-07-26 07:50:00,67.9,49.1,31.83,NNE,32,0.0,2.0,51,0.00,,---,0.00,VWS V14.01,2013-07-26 11:50:00,
2013-07-26 07:55:00,67.9,49.1,31.83,NNE,32,0.0,3.0,51,0.00,,---,0.00,VWS V14.01,2013-07-26 11:55:00,
2013-07-26 08:00:00,68.0,49.2,31.83,NNE,30,0.0,4.0,51,0.00,,---,0.00,VWS V14.01,2013-07-26 12:00:00,
2013-07-26 08:05:00,68.1,49.3,31.83,NNE,30,0.0,4.0,51,0.00,,---,0.00,VWS V14.01,2013-07-26 12:05:00,
2013-07-26 08:10:00,68.2,49.4,31.83,NNE,30,0.0,4.0,51,0.00,,---,0.00,VWS V14.01,2013-07-26 12:10:00,
2013-07-26 08:15:00,68.3,49.5,31.83,NNE,29,0.0,4.0,51,0.00,,---,0.00,VWS V14.01,2013-07-26 12:15:00,
2013-07-26 08:20:00,68.4,49.6,31.83,NNE,30,0.0,4.0,51,0.00,,---,0.00,VWS V14.01,2013-07-26 12:20:00,
2013-07-26 08:25:00,68.5,49.2,31.83,NNE,30,0.0,4.0,50,0.00,,---,0.00,VWS V14.01,2013-07-26 12:25:00,
2013-07-26 08:30:00,68.6,49.2,31.83,NNE,30,0.0,4.0,50,0.00,,---,0.00,VWS V14.01,2013-07-26 12:30:00,
2013-07-26 08:35:00,68.7,49.3,31.83,NNE,30,0.0,3.0,50,0.00,,---,0.00,VWS V14.01,2013-07-26 12:35:00,
2013-07-26 08:40:00,68.8,49.4,31.83,NNE,30,0.0,3.0,50,0.00,,---,0.00,VWS V14.01,2013-07-26 12:40:00,
2013-07-26 08:45:00,69.0,48.5,31.83,NNE,30,0.0,3.0,48,0.00,,---,0.00,VWS V14.01,2013-07-26 12:45:00,
2013-07-26 08:50:00,69.1,48.6,31.83,NNE,30,0.0,3.0,48,0.00,,---,0.00,VWS V14.01,2013-07-26 12:50:00,
2013-07-26 08:55:00,69.4,48.9,31.83,NNE,30,0.0,3.0,48,0.00,,---,0.00,VWS V14.01,2013-07-26 12:55:00,
2013-07-26 09:00:00,69.6,49.1,31.83,NNE,29,1.0,3.0,48,0.00,,---,0.00,VWS V14.01,2013-07-26 13:00:00,
2013-07-26 09:05:00,69.7,49.2,31.83,NNE,30,0.0,0.0,48,0.00,,---,0.00,VWS V14.01,2013-07-26 13:05:00,
2013-07-26 09:10:00,69.9,49.3,31.83,NNE,22,0.0,5.0,48,0.00,,---,0.00,VWS V14.01,2013-07-26 13:10:00,
2013-07-26 09:15:00,70.1,49.5,31.83,NNE,22,0.0,5.0,48,0.00,,---,0.00,VWS V14.01,2013-07-26 13:15:00,
2013-07-26 09:20:00,70.3,49.7,31.83,NNE,22,0.0,5.0,48,0.00,,---,0.00,VWS V14.01,2013-07-26 13:20:00,
2013-07-26 09:25:00,70.4,50.3,31.83,NNE,16,0.0,5.0,49,0.00,,---,0.00,VWS V14.01,2013-07-26 13:25:00,
2013-07-26 09:30:00,70.5,50.4,31.83,NNE,16,0.0,5.0,49,0.00,,---,0.00,VWS V14.01,2013-07-26 13:30:00,
2013-07-26 09:35:00,70.5,51.0,31.83,North,355,0.0,4.0,50,0.00,,---,0.00,VWS V14.01,2013-07-26 13:35:00,
2013-07-26 09:40:00,70.6,51.1,31.83,North,355,0.0,4.0,50,0.00,,---,0.00,VWS V14.01,2013-07-26 13:40:00,
2013-07-26 09:45:00,70.7,51.7,31.83,North,355,1.0,4.0,51,0.00,,---,0.00,VWS V14.01,2013-07-26 13:45:00,
2013-07-26 09:50:00,70.9,51.9,31.83,North,355,0.0,4.0,51,0.00,,---,0.00,VWS V14.01,2013-07-26 13:50:00,
2013-07-26 09:55:00,71.2,52.2,31.83,North,355,0.0,4.0,51,0.01,,---,0.01,VWS V14.01,2013-07-26 13:55:00,
2013-07-26 10:00:00,71.4,53.4,31.83,North,355,0.0,4.0,53,0.01,,---,0.01,VWS V14.01,2013-07-26 14:00:00,
2013-07-26 10:05:00,71.7,54.7,31.83,NNE,26,0.0,2.0,55,0.01,,---,0.01,VWS V14.01,2013-07-26 14:05:00,
2013-07-26 10:10:00,72.1,56.5,31.83,NNE,22,0.0,5.0,58,0.01,,---,0.01,VWS V14.01,2013-07-26 14:10:00,
2013-07-26 10:15:00,72.4,57.8,31.83,NNE,28,0.0,5.0,60,0.01,,---,0.01,VWS V14.01,2013-07-26 14:15:00,
2013-07-26 10:20:00,73.0,58.8,31.83,North,11,0.0,7.0,61,0.01,,---,0.01,VWS V14.01,2013-07-26 14:20:00,
2013-07-26 10:25:00,73.6,59.3,31.83,NNE,31,0.0,7.0,61,0.01,,---,0.01,VWS V14.01,2013-07-26 14:25:00,
2013-07-26 10:30:00,74.0,60.6,31.83,NNE,15,1.0,7.0,63,0.01,,---,0.01,VWS V14.01,2013-07-26 14:30:00,
2013-07-26 10:35:00,74.4,61.0,31.83,WNW,283,0.0,6.0,63,0.01,,---,0.01,VWS V14.01,2013-07-26 14:35:00,
2013-07-26 10:40:00,75.0,62.0,31.83,NE,42,0.0,6.0,64,0.01,,---,0.01,VWS V14.01,2013-07-26 14:40:00,
2013-07-26 10:45:00,76.0,63.0,31.83,WNW,296,4.0,6.0,64,0.01,,---,0.01,VWS V14.01,2013-07-26 14:45:00,
2013-07-26 10:50:00,76.8,64.2,31.83,NNW,343,0.0,6.0,65,0.01,,---,0.01,VWS V14.01,2013-07-26 14:50:00,
2013-07-26 10:55:00,77.8,65.1,31.83,West,265,1.0,7.0,65,0.01,,---,0.01,VWS V14.01,2013-07-26 14:55:00,
2013-07-26 11:00:00,78.5,65.8,31.83,WSW,244,4.0,10.0,65,0.01,,---,0.01,VWS V14.01,2013-07-26 15:00:00,
2013-07-26 11:05:00,78.7,66.0,31.83,WSW,252,0.0,8.0,65,0.00,,---,0.01,VWS V14.01,2013-07-26 15:05:00,
2013-07-26 11:10:00,79.0,66.2,31.83,WSW,256,0.0,8.0,65,0.00,,---,0.01,VWS V14.01,2013-07-26 15:10:00,
2013-07-26 11:15:00,79.4,66.6,31.83,NNE,33,1.0,8.0,65,0.00,,---,0.01,VWS V14.01,2013-07-26 15:15:00,
2013-07-26 11:20:00,80.0,67.2,31.83,NNE,29,1.0,8.0,65,0.00,,---,0.01,VWS V14.01,2013-07-26 15:20:00,
2013-07-26 11:25:00,80.0,67.2,31.83,NE,44,0.0,10.0,65,0.00,,---,0.01,VWS V14.01,2013-07-26 15:25:00,
2013-07-26 11:30:00,80.5,67.7,31.83,NE,35,2.0,10.0,65,0.00,,---,0.01,VWS V14.01,2013-07-26 15:30:00,
2013-07-26 11:35:00,81.3,68.0,31.83,NNE,23,0.0,2.0,64,0.00,,---,0.01,VWS V14.01,2013-07-26 15:35:00,
2013-07-26 11:40:00,81.9,68.1,31.83,NE,34,0.0,3.0,63,0.00,,---,0.01,VWS V14.01,2013-07-26 15:40:00,
2013-07-26 11:45:00,82.2,68.4,31.83,NNW,345,5.0,5.0,63,0.00,,---,0.01,VWS V14.01,2013-07-26 15:45:00,
2013-07-26 11:50:00,82.5,68.6,31.83,NNE,24,0.0,5.0,63,0.00,,---,0.01,VWS V14.01,2013-07-26 15:50:00,
2013-07-26 11:55:00,83.0,68.7,31.83,WNW,287,0.0,5.0,62,0.00,,---,0.01,VWS V14.01,2013-07-26 15:55:00,
2013-07-26 12:00:00,83.0,68.7,31.83,NNE,23,0.0,5.0,62,0.00,,---,0.01,VWS V14.01,2013-07-26 16:00:00,
2013-07-26 12:05:00,83.1,68.7,31.83,NE,40,0.0,4.0,62,0.00,,---,0.01,VWS V14.01,2013-07-26 16:05:00,
2013-07-26 12:10:00,83.4,69.5,31.83,NE,53,0.0,5.0,63,0.00,,---,0.01,VWS V14.01,2013-07-26 16:10:00,
2013-07-26 12:15:00,83.0,68.2,31.83,NNE,19,0.0,5.0,61,0.00,,---,0.01,VWS V14.01,2013-07-26 16:15:00,
2013-07-26 12:20:00,83.0,67.7,31.83,NNW,343,4.0,11.0,60,0.00,,---,0.01,VWS V14.01,2013-07-26 16:20:00,
2013-07-26 12:25:00,82.5,66.7,31.83,WNW,284,3.0,11.0,59,0.00,,---,0.01,VWS V14.01,2013-07-26 16:25:00,
2013-07-26 12:30:00,82.1,67.3,31.83,ENE,67,0.0,11.0,61,0.00,,---,0.01,VWS V14.01,2013-07-26 16:30:00,
2013-07-26 12:35:00,81.4,67.1,31.83,SSW,200,0.0,10.0,62,0.00,,---,0.01,VWS V14.01,2013-07-26 16:35:00,
2013-07-26 12:40:00,80.6,66.8,31.83,NE,34,0.0,10.0,63,0.00,,---,0.01,VWS V14.01,2013-07-26 16:40:00,
2013-07-26 12:45:00,80.4,67.1,31.83,WSW,241,1.0,10.0,64,0.00,,---,0.01,VWS V14.01,2013-07-26 16:45:00,
2013-07-26 12:50:00,80.1,66.8,31.83,WSW,254,0.0,10.0,64,0.00,,---,0.01,VWS V14.01,2013-07-26 16:50:00,
2013-07-26 12:55:00,79.8,66.6,31.83,NNW,344,0.0,10.0,64,0.00,,---,0.01,VWS V14.01,2013-07-26 16:55:00,
2013-07-26 13:00:00,79.7,66.9,31.83,NNW,346,0.0,10.0,65,0.00,,---,0.01,VWS V14.01,2013-07-26 17:00:00,
2013-07-26 13:05:00,79.8,66.6,31.83,NNE,28,0.0,3.0,64,0.00,,---,0.01,VWS V14.01,2013-07-26 17:05:00,
2013-07-26 13:10:00,79.8,67.0,31.83,NNE,25,0.0,6.0,65,0.00,,---,0.01,VWS V14.01,2013-07-26 17:10:00,
2013-07-26 13:15:00,79.9,67.1,31.83,ENE,61,0.0,6.0,65,0.00,,---,0.01,VWS V14.01,2013-07-26 17:15:00,
2013-07-26 13:20:00,80.6,67.8,31.83,West,261,0.0,6.0,65,0.00,,---,0.01,VWS V14.01,2013-07-26 17:20:00,
2013-07-26 13:25:00,81.3,67.1,31.83,NE,38,0.0,6.0,62,0.00,,---,0.01,VWS V14.01,2013-07-26 17:25:00,
2013-07-26 13:30:00,82.5,68.2,31.83,West,268,1.0,6.0,62,0.00,,---,0.01,VWS V14.01,2013-07-26 17:30:00,
2013-07-26 13:35:00,83.1,67.3,31.83,NE,38,1.0,6.0,59,0.00,,---,0.01,VWS V14.01,2013-07-26 17:35:00,
2013-07-26 13:40:00,83.3,67.5,31.83,NNE,19,1.0,7.0,59,0.00,,---,0.01,VWS V14.01,2013-07-26 17:40:00,
2013-07-26 13:45:00,84.0,67.7,31.83,NNW,348,0.0,7.0,58,0.00,,---,0.01,VWS V14.01,2013-07-26 17:45:00,
2013-07-26 13:50:00,84.3,67.9,31.83,NNE,17,9.0,9.0,58,0.00,,---,0.01,VWS V14.01,2013-07-26 17:50:00,
2013-07-26 13:55:00,83.4,67.6,31.83,NE,41,0.0,9.0,59,0.00,,---,0.01,VWS V14.01,2013-07-26 17:55:00,
2013-07-26 14:00:00,83.3,68.0,31.83,WSW,241,0.0,9.0,60,0.00,,---,0.01,VWS V14.01,2013-07-26 18:00:00,
2013-07-26 14:05:00,83.6,67.8,31.83,NE,41,1.0,4.0,59,0.00,,---,0.01,VWS V14.01,2013-07-26 18:05:00,
2013-07-26 14:10:00,82.4,68.1,31.83,NNE,23,0.0,6.0,62,0.00,,---,0.01,VWS V14.01,2013-07-26 18:10:00,
2013-07-26 14:15:00,82.5,68.2,31.83,NNE,23,0.0,6.0,62,0.00,,---,0.01,VWS V14.01,2013-07-26 18:15:00,
2013-07-26 14:20:00,82.5,67.7,31.83,NNW,338,1.0,6.0,61,0.00,,---,0.01,VWS V14.01,2013-07-26 18:20:00,
2013-07-26 14:25:00,82.3,68.0,31.83,WSW,250,0.0,6.0,62,0.00,,---,0.01,VWS V14.01,2013-07-26 18:25:00,
2013-07-26 14:31:00,82.1,67.8,31.83,West,278,0.0,2.0,62,0.00,,---,0.01,VWS V14.01,2013-07-26 18:31:00,
2013-07-26 14:36:00,82.0,67.7,31.83,West,259,0.0,6.0,62,0.00,,---,0.01,VWS V14.01,2013-07-26 18:36:00,
2013-07-26 14:41:00,81.8,68.0,31.83,WSW,258,0.0,6.0,63,0.00,,---,0.01,VWS V14.01,2013-07-26 18:41:00,
2013-07-26 14:46:00,82.2,68.8,31.83,WSW,258,0.0,1.0,64,0.00,,---,0.01,VWS V14.01,2013-07-26 18:46:00,
2013-07-26 14:51:00,82.4,68.1,31.83,WSW,250,0.0,9.0,62,0.00,,---,0.01,VWS V14.01,2013-07-26 18:51:00,
2013-07-26 14:56:00,83.1,67.8,31.83,WSW,249,0.0,9.0,60,0.00,,---,0.01,VWS V14.01,2013-07-26 18:56:00,
2013-07-26 15:01:00,83.6,68.3,31.83,NNE,22,1.0,9.0,60,0.00,,---,0.01,VWS V14.01,2013-07-26 19:01:00,
2013-07-26 15:06:00,84.2,66.8,31.83,NE,37,0.0,3.0,56,0.00,,---,0.01,VWS V14.01,2013-07-26 19:06:00,
2013-07-26 15:11:00,84.6,66.7,31.83,NE,37,0.0,3.0,55,0.00,,---,0.01,VWS V14.01,2013-07-26 19:11:00,
2013-07-26 15:16:00,85.0,67.0,31.83,NE,40,0.0,3.0,55,0.00,,---,0.01,VWS V14.01,2013-07-26 19:16:00,
2013-07-26 15:21:00,85.3,67.8,31.83,NE,41,0.0,3.0,56,0.00,,---,0.01,VWS V14.01,2013-07-26 19:21:00,
2013-07-26 15:26:00,85.6,70.6,31.83,ENE,78,0.0,3.0,61,0.00,,---,0.01,VWS V14.01,2013-07-26 19:26:00,
2013-07-26 15:31:00,85.6,69.1,31.83,East,83,0.0,4.0,58,0.00,,---,0.01,VWS V14.01,2013-07-26 19:31:00,
2013-07-26 15:36:00,85.0,69.1,31.83,SE,142,0.0,7.0,59,0.00,,---,0.01,VWS V14.01,2013-07-26 19:36:00,
2013-07-26 15:41:00,84.6,69.7,31.83,ESE,113,1.0,7.0,61,0.00,,---,0.01,VWS V14.01,2013-07-26 19:41:00,
2013-07-26 15:46:00,84.2,70.2,31.83,ESE,103,1.0,7.0,63,0.00,,---,0.01,VWS V14.01,2013-07-26 19:46:00,
2013-07-26 15:51:00,84.4,70.4,31.83,ESE,107,0.0,7.0,63,0.00,,---,0.01,VWS V14.01,2013-07-26 19:51:00,
2013-07-26 15:56:00,85.1,69.7,31.83,ESE,108,0.0,7.0,60,0.00,,---,0.01,VWS V14.01,2013-07-26 19:56:00,
2013-07-26 16:01:00,85.1,69.7,31.83,SE,132,1.0,7.0,60,0.00,,---,0.01,VWS V14.01,2013-07-26 20:01:00,
2013-07-26 16:06:00,85.1,69.7,31.83,ESE,112,5.0,6.0,60,0.00,,---,0.01,VWS V14.01,2013-07-26 20:06:00,
2013-07-26 16:12:00,84.7,70.2,31.83,SE,126,2.0,6.0,62,0.00,,---,0.01,VWS V14.01,2013-07-26 20:12:00,
2013-07-26 16:17:00,84.1,70.2,31.83,SE,142,5.0,8.0,63,0.00,,---,0.01,VWS V14.01,2013-07-26 20:17:00,
2013-07-26 16:22:00,83.4,70.4,31.83,SSE,149,0.0,8.0,65,0.00,,---,0.01,VWS V14.01,2013-07-26 20:22:00,
2013-07-26 16:27:00,83.2,70.2,31.83,East,88,0.0,8.0,65,0.00,,---,0.01,VWS V14.01,2013-07-26 20:27:00,
2013-07-26 16:32:00,82.8,69.8,31.83,SE,134,1.0,8.0,65,0.00,,---,0.01,VWS V14.01,2013-07-26 20:32:00,
2013-07-26 16:37:00,82.4,69.5,31.83,ESE,111,1.0,8.0,65,0.00,,---,0.01,VWS V14.01,2013-07-26 20:37:00,
2013-07-26 16:42:00,82.5,70.4,31.83,ESE,118,4.0,8.0,67,0.00,,---,0.01,VWS V14.01,2013-07-26 20:42:00,
2013-07-26 16:47:00,82.4,70.3,31.83,SE,132,0.0,8.0,67,0.00,,---,0.01,VWS V14.01,2013-07-26 20:47:00,
2013-07-26 16:52:00,82.4,69.9,31.83,SE,136,0.0,8.0,66,0.00,,---,0.01,VWS V14.01,2013-07-26 20:52:00,
2013-07-26 16:57:00,82.2,69.7,31.83,SE,132,2.0,8.0,66,0.00,,---,0.01,VWS V14.01,2013-07-26 20:57:00,
2013-07-26 17:02:00,82.6,70.1,31.83,SE,132,1.0,8.0,66,0.00,,---,0.01,VWS V14.01,2013-07-26 21:02:00,
2013-07-26 17:07:00,82.9,70.4,31.83,East,80,0.0,3.0,66,0.00,,---,0.01,VWS V14.01,2013-07-26 21:07:00,
2013-07-26 17:12:00,82.9,70.4,31.83,ESE,107,0.0,4.0,66,0.00,,---,0.01,VWS V14.01,2013-07-26 21:12:00,
2013-07-26 17:17:00,83.1,70.1,31.83,ESE,109,0.0,4.0,65,0.00,,---,0.01,VWS V14.01,2013-07-26 21:17:00,
2013-07-26 17:22:00,83.0,69.6,31.83,SE,134,0.0,4.0,64,0.00,,---,0.01,VWS V14.01,2013-07-26 21:22:00,
2013-07-26 17:27:00,83.0,69.6,31.83,SE,134,0.0,4.0,64,0.00,,---,0.01,VWS V14.01,2013-07-26 21:27:00,
2013-07-26 17:32:00,83.3,70.3,31.83,SE,134,0.0,0.0,65,0.00,,---,0.01,VWS V14.01,2013-07-26 21:32:00,
2013-07-26 17:37:00,83.4,69.9,31.83,SE,134,1.0,2.0,64,0.00,,---,0.01,VWS V14.01,2013-07-26 21:37:00,
2013-07-26 17:42:00,83.5,70.1,31.83,SE,134,0.0,2.0,64,0.00,,---,0.01,VWS V14.01,2013-07-26 21:42:00,
2013-07-26 17:47:00,83.6,70.1,31.83,SE,134,0.0,2.0,64,0.00,,---,0.01,VWS V14.01,2013-07-26 21:47:00,
2013-07-26 17:52:00,83.6,70.1,31.83,SE,134,0.0,2.0,64,0.00,,---,0.01,VWS V14.01,2013-07-26 21:52:00,
2013-07-26 17:57:00,83.5,70.1,31.83,SE,136,0.0,2.0,64,0.00,,---,0.01,VWS V14.01,2013-07-26 21:57:00,
2013-07-26 18:02:00,83.5,70.5,31.83,SE,136,0.0,2.0,65,0.00,,---,0.01,VWS V14.01,2013-07-26 22:02:00,
2013-07-26 18:07:00,83.5,70.5,31.83,SE,136,0.0,0.0,65,0.00,,---,0.01,VWS V14.01,2013-07-26 22:07:00,
2013-07-26 18:12:00,83.3,69.9,31.83,SE,130,0.0,3.0,64,0.00,,---,0.01,VWS V14.01,2013-07-26 22:12:00,
2013-07-26 18:17:00,82.9,69.5,31.83,SE,130,0.0,3.0,64,0.00,,---,0.01,VWS V14.01,2013-07-26 22:17:00,
2013-07-26 18:22:00,82.6,69.7,31.83,SE,130,0.0,3.0,65,0.00,,---,0.01,VWS V14.01,2013-07-26 22:22:00,
2013-07-26 18:27:00,82.4,69.5,31.83,SE,130,0.0,3.0,65,0.00,,---,0.01,VWS V14.01,2013-07-26 22:27:00,
2013-07-26 18:32:00,82.2,69.7,31.83,SE,129,0.0,0.0,66,0.00,,---,0.01,VWS V14.01,2013-07-26 22:32:00,
2013-07-26 18:37:00,82.2,69.7,31.83,SE,130,0.0,2.0,66,0.00,,---,0.01,VWS V14.01,2013-07-26 22:37:00,
2013-07-26 18:42:00,82.1,70.1,31.83,SE,130,0.0,2.0,67,0.00,,---,0.01,VWS V14.01,2013-07-26 22:42:00,
2013-07-26 18:47:00,81.6,69.6,31.83,SE,130,0.0,2.0,67,0.00,,---,0.01,VWS V14.01,2013-07-26 22:47:00,
2013-07-26 18:52:00,81.5,69.9,31.83,SE,130,0.0,2.0,68,0.00,,---,0.01,VWS V14.01,2013-07-26 22:52:00,
2013-07-26 18:57:00,81.3,69.7,31.83,SE,130,0.0,2.0,68,0.00,,---,0.01,VWS V14.01,2013-07-26 22:57:00,
2013-07-26 19:02:00,81.2,69.6,31.83,SE,129,0.0,0.0,68,0.00,,---,0.01,VWS V14.01,2013-07-26 23:02:00,
2013-07-26 19:07:00,81.0,69.4,31.83,SE,129,0.0,1.0,68,0.00,,---,0.01,VWS V14.01,2013-07-26 23:07:00,
2013-07-26 19:12:00,80.9,69.4,31.83,SE,130,0.0,1.0,68,0.00,,---,0.01,VWS V14.01,2013-07-26 23:12:00,
2013-07-26 19:17:00,80.7,69.2,31.83,SE,129,0.0,1.0,68,0.00,,---,0.01,VWS V14.01,2013-07-26 23:17:00,
2013-07-26 19:22:00,80.6,69.1,31.83,SE,130,0.0,1.0,68,0.00,,---,0.01,VWS V14.01,2013-07-26 23:22:00,
2013-07-26 19:27:00,80.3,68.8,31.83,SE,130,0.0,1.0,68,0.00,,---,0.01,VWS V14.01,2013-07-26 23:27:00,
2013-07-26 19:32:00,80.2,68.7,31.83,SE,130,0.0,0.0,68,0.00,,---,0.01,VWS V14.01,2013-07-26 23:32:00,
2013-07-26 19:37:00,80.0,68.5,31.83,SE,130,0.0,0.0,68,0.00,,---,0.01,VWS V14.01,2013-07-26 23:37:00,
2013-07-26 19:42:00,79.8,68.3,31.83,SE,130,0.0,1.0,68,0.00,,---,0.01,VWS V14.01,2013-07-26 23:42:00,
2013-07-26 19:47:00,79.6,68.1,31.83,SE,130,0.0,1.0,68,0.00,,---,0.01,VWS V14.01,2013-07-26 23:47:00,
2013-07-26 19:52:00,79.1,67.6,31.83,SE,140,4.0,4.0,68,0.00,,---,0.01,VWS V14.01,2013-07-26 23:52:00,
2013-07-26 19:57:00,78.6,67.2,31.83,SE,140,0.0,4.0,68,0.00,,---,0.01,VWS V14.01,2013-07-26 23:57:00,
2013-07-26 20:02:00,78.2,66.8,31.83,SE,141,4.0,4.0,68,0.00,,---,0.01,VWS V14.01,2013-07-27 00:02:00,
2013-07-26 20:07:00,77.8,66.4,31.83,SE,142,0.0,4.0,68,0.00,,---,0.01,VWS V14.01,2013-07-27 00:07:00,
2013-07-26 20:12:00,77.6,66.2,31.83,SE,142,0.0,4.0,68,0.00,,---,0.01,VWS V14.01,2013-07-27 00:12:00,
2013-07-26 20:17:00,77.3,65.9,31.83,SE,142,3.0,4.0,68,0.00,,---,0.01,VWS V14.01,2013-07-27 00:17:00,
2013-07-26 20:22:00,77.1,64.9,31.83,South,182,0.0,6.0,66,0.00,,---,0.01,VWS V14.01,2013-07-27 00:22:00,
2013-07-26 20:27:00,76.7,64.1,31.83,South,185,0.0,6.0,65,0.00,,---,0.01,VWS V14.01,2013-07-27 00:27:00,
2013-07-26 20:32:00,76.5,63.0,31.83,South,186,0.0,0.0,63,0.00,,---,0.01,VWS V14.01,2013-07-27 00:32:00,
2013-07-26 20:37:00,76.2,62.7,31.83,South,186,0.0,4.0,63,0.00,,---,0.01,VWS V14.01,2013-07-27 00:37:00,
2013-07-26 20:42:00,76.1,62.2,31.83,South,186,0.0,4.0,62,0.00,,---,0.01,VWS V14.01,2013-07-27 00:42:00,
2013-07-26 20:47:00,75.9,62.0,31.83,SSW,211,0.0,6.0,62,0.00,,---,0.01,VWS V14.01,2013-07-27 00:47:00,
2013-07-26 20:52:00,75.7,61.8,31.83,South,188,0.0,6.0,62,0.00,,---,0.01,VWS V14.01,2013-07-27 00:52:00,
2013-07-26 20:57:00,75.6,61.2,31.83,South,188,0.0,6.0,61,0.00,,---,0.01,VWS V14.01,2013-07-27 00:57:00,
2013-07-26 21:02:00,75.5,60.2,31.83,South,184,0.0,0.0,59,0.00,,---,0.01,VWS V14.01,2013-07-27 01:02:00,
2013-07-26 21:07:00,75.5,59.7,31.83,SW,217,2.0,2.0,58,0.00,,---,0.01,VWS V14.01,2013-07-27 01:07:00,
2013-07-26 21:12:00,75.4,58.6,31.83,SE,140,0.0,3.0,56,0.00,,---,0.01,VWS V14.01,2013-07-27 01:12:00,
2013-07-26 21:17:00,75.3,58.0,31.83,SE,142,0.0,3.0,55,0.00,,---,0.01,VWS V14.01,2013-07-27 01:17:00,
2013-07-26 21:22:00,75.1,57.3,31.83,South,180,0.0,4.0,54,0.00,,---,0.01,VWS V14.01,2013-07-27 01:22:00,
2013-07-26 21:27:00,75.0,57.2,31.83,South,184,2.0,4.0,54,0.00,,---,0.01,VWS V14.01,2013-07-27 01:27:00,
2013-07-26 21:32:00,74.9,56.1,31.83,SW,217,0.0,0.0,52,0.00,,---,0.01,VWS V14.01,2013-07-27 01:32:00,
2013-07-26 21:37:00,74.8,55.5,31.83,SW,217,0.0,3.0,51,0.00,,---,0.01,VWS V14.01,2013-07-27 01:37:00,
2013-07-26 21:42:00,74.7,54.8,31.83,South,187,0.0,4.0,50,0.00,,---,0.01,VWS V14.01,2013-07-27 01:42:00,
2013-07-26 21:47:00,74.6,54.8,31.83,SSW,192,0.0,6.0,50,0.00,,---,0.01,VWS V14.01,2013-07-27 01:47:00,
2013-07-26 21:52:00,74.4,54.0,31.83,SSW,207,5.0,6.0,49,0.00,,---,0.01,VWS V14.01,2013-07-27 01:52:00,
2013-07-26 21:57:00,74.3,53.9,31.83,SSW,207,0.0,6.0,49,0.00,,---,0.01,VWS V14.01,2013-07-27 01:57:00,
2013-07-26 22:02:00,74.1,53.2,31.83,SSW,206,0.0,6.0,48,0.00,,---,0.01,VWS V14.01,2013-07-27 02:02:00,
2013-07-26 22:07:00,74.0,53.1,31.83,SSW,196,2.0,4.0,48,0.00,,---,0.01,VWS V14.01,2013-07-27 02:07:00,
2013-07-26 22:12:00,73.9,52.4,31.83,SSW,200,2.0,5.0,47,0.00,,---,0.01,VWS V14.01,2013-07-27 02:12:00,
2013-07-26 22:17:00,73.8,51.8,31.83,WSW,237,5.0,5.0,46,0.00,,---,0.01,VWS V14.01,2013-07-27 02:17:00,
2013-07-26 22:22:00,73.7,51.7,31.83,South,184,0.0,5.0,46,0.00,,---,0.01,VWS V14.01,2013-07-27 02:22:00,
2013-07-26 22:27:00,73.6,51.6,31.83,South,185,0.0,5.0,46,0.00,,---,0.01,VWS V14.01,2013-07-27 02:27:00,
2013-07-26 22:32:00,73.6,51.0,31.83,South,184,0.0,5.0,45,0.00,,---,0.01,VWS V14.01,2013-07-27 02:32:00,
2013-07-26 22:37:00,73.5,50.9,31.83,South,184,0.0,2.0,45,0.00,,---,0.01,VWS V14.01,2013-07-27 02:37:00,
2013-07-26 22:42:00,73.5,50.3,31.83,South,188,0.0,2.0,44,0.00,,---,0.01,VWS V14.01,2013-07-27 02:42:00,
2013-07-26 22:47:00,73.4,49.6,31.83,SW,217,0.0,2.0,43,0.00,,---,0.01,VWS V14.01,2013-07-27 02:47:00,
2013-07-26 22:52:00,73.4,48.9,31.83,SSW,206,0.0,5.0,42,0.00,,---,0.01,VWS V14.01,2013-07-27 02:52:00,
2013-07-26 22:57:00,73.4,48.9,31.83,SSW,205,0.0,5.0,42,0.00,,---,0.01,VWS V14.01,2013-07-27 02:57:00,
2013-07-26 23:02:00,73.3,48.8,31.83,SSW,205,0.0,5.0,42,0.00,,---,0.01,VWS V14.01,2013-07-27 03:02:00,
2013-07-26 23:07:00,73.3,48.2,31.83,SSW,205,0.0,1.0,41,0.00,,---,0.01,VWS V14.01,2013-07-27 03:07:00,
2013-07-26 23:12:00,73.3,48.2,31.83,South,190,0.0,5.0,41,0.00,,---,0.01,VWS V14.01,2013-07-27 03:12:00,
2013-07-26 23:17:00,73.3,48.2,31.83,South,190,0.0,5.0,41,0.00,,---,0.01,VWS V14.01,2013-07-27 03:17:00,
2013-07-26 23:22:00,73.3,48.2,31.83,South,190,0.0,5.0,41,0.00,,---,0.01,VWS V14.01,2013-07-27 03:22:00,
2013-07-26 23:27:00,73.2,48.1,31.83,SSW,213,0.0,5.0,41,0.00,,---,0.01,VWS V14.01,2013-07-27 03:27:00,
2013-07-26 23:32:00,73.2,47.5,31.83,SSW,202,0.0,0.0,40,0.00,,---,0.01,VWS V14.01,2013-07-27 03:32:00,
2013-07-26 23:37:00,73.2,47.5,31.83,SSW,202,0.0,3.0,40,0.00,,---,0.01,VWS V14.01,2013-07-27 03:37:00,
2013-07-26 23:42:00,73.2,47.5,31.83,SW,233,0.0,3.0,40,0.00,,---,0.01,VWS V14.01,2013-07-27 03:42:00,
2013-07-26 23:47:00,73.2,47.5,31.83,SSW,203,0.0,3.0,40,0.00,,---,0.01,VWS V14.01,2013-07-27 03:47:00,
2013-07-26 23:52:00,73.2,47.5,31.83,SSE,150,0.0,3.0,40,0.00,,---,0.01,VWS V14.01,2013-07-27 03:52:00,
2013-07-26 23:57:00,73.2,47.5,31.83,SSE,168,0.0,3.0,40,0.00,,---,0.01,VWS V14.01,2013-07-27 03:57:00,